Date String (YYYY-MM-DD hh:mm:ss) UTC,Instrument flags,absolute air pressure of the measurement (hPa),sample flow rate (lpm),inlet stack bypass flow (lpm),air temperature of the measurement (°C),ambient temperature measured by the external sensor (°C),aerosol sample conditioner tube jacket temperature (°C),OPC LED temperature (°C),internal box temperature (°C),relative humidity of the measurement (%),span deviation,mass concentration of particles derived from Lorenz-Mie calculation of OPC scattering (μg/m³),mass concentration of particles derived from Lorenz-Mie calculation of OPC scattering (μg/m³),mass concentration of particles derived from Lorenz-Mie calculation of OPC scattering (μg/m³)
DateTimeUTC,F1_M11,P_M11,Q1_M11,Q2_M11,T1_M11,T2_M11,T3_M11,T4_M11,T5_M11,U1_M11,ZSPAN_M11,X0_M11,X2_M11,X1_M11
2023-12-30 03:00:00,SystemResetWarning,0832.4,5.00,000.00,024.1,022.7,000.0,032.6,025.5,8.1,0000.0,0008.04,0001.72,0001.03
2023-12-30 03:01:00,SystemResetWarning,0832.4,5.00,000.00,024.1,022.7,000.0,032.5,025.4,8.1,0000.0,0007.79,0001.72,0001.04
2023-12-30 03:02:00,SystemResetWarning,0832.4,5.00,000.00,024.1,022.7,000.0,032.5,025.4,8.1,0000.0,0007.57,0001.71,0001.03
2023-12-30 03:03:00,SystemResetWarning,0832.4,4.99,000.00,024.1,022.7,000.0,032.5,025.4,8.1,0000.0,0006.97,0001.71,0001.04
2023-12-30 03:04:00,SystemResetWarning,0832.4,5.00,000.00,024.1,022.7,000.0,032.5,025.3,8.1,0000.0,0007.08,0001.73,0001.04
2023-12-30 03:05:00,SystemResetWarning,0832.3,5.00,000.00,024.0,022.6,000.0,032.5,025.3,8.1,0000.0,0006.41,0001.73,0001.04
2023-12-30 03:06:00,SystemResetWarning,0832.3,5.01,000.00,024.0,022.6,000.0,032.5,025.3,8.1,0000.0,0006.47,0001.70,0001.05
2023-12-30 03:07:00,SystemResetWarning,0832.3,5.01,000.00,024.0,022.6,000.0,032.5,025.3,8.2,0000.0,0006.41,0001.70,0001.05
2023-12-30 03:08:00,SystemResetWarning,0832.3,4.99,000.00,024.0,022.6,000.0,032.5,025.3,8.1,0000.0,0006.21,0001.72,0001.04
2023-12-30 03:09:00,SystemResetWarning,0832.3,4.99,000.00,024.0,022.6,000.0,032.4,025.3,8.1,0000.0,0004.71,0001.69,0001.04
2023-12-30 03:10:00,SystemResetWarning,0832.3,5.00,000.00,024.0,022.6,000.0,032.4,025.3,8.1,0000.0,0004.26,0001.63,0001.04
2023-12-30 03:11:00,SystemResetWarning,0832.3,5.00,000.00,024.0,022.6,000.0,032.4,025.3,8.1,0000.0,0004.12,0001.60,0001.03
2023-12-30 03:12:00,SystemResetWarning,0832.3,5.00,000.00,023.9,022.5,000.0,032.4,025.2,8.1,0000.0,0004.11,0001.58,0001.01
2023-12-30 03:13:00,SystemResetWarning,0832.3,5.00,000.00,023.9,022.5,000.0,032.4,025.2,8.1,0000.0,0004.80,0001.58,0001.00
2023-12-30 03:14:00,SystemResetWarning,0832.3,5.00,000.00,023.9,022.5,000.0,032.4,025.2,8.0,0000.0,0004.95,0001.61,0001.00
2023-12-30 03:15:00,SystemResetWarning,0832.2,5.00,000.00,023.9,022.5,000.0,032.4,025.2,8.0,0000.0,0004.82,0001.61,0001.00
2023-12-30 03:16:00,SystemResetWarning,0832.2,5.00,000.00,023.9,022.5,000.0,032.3,025.2,8.0,0000.0,0004.08,0001.61,0000.99
2023-12-30 03:17:00,SystemResetWarning,0832.2,5.00,000.00,023.9,022.5,000.0,032.3,025.2,8.0,0000.0,0003.66,0001.59,0000.98
2023-12-30 03:18:00,SystemResetWarning,0832.2,5.00,000.00,023.9,022.5,000.0,032.3,025.2,7.9,0000.0,0003.65,0001.56,0000.97
2023-12-30 03:19:00,SystemResetWarning,0832.2,5.00,000.00,023.9,022.5,000.0,032.3,025.2,7.9,0000.0,0003.82,0001.60,0000.97
2023-12-30 03:20:00,SystemResetWarning,0832.2,4.99,000.00,023.9,022.5,000.0,032.3,025.2,7.9,0000.0,0003.94,0001.63,0000.97
2023-12-30 03:21:00,SystemResetWarning,0832.2,5.00,000.00,023.8,022.5,000.0,032.3,025.2,7.9,0000.0,0004.00,0001.65,0000.97
2023-12-30 03:22:00,SystemResetWarning,0832.2,4.99,000.00,023.8,022.5,000.0,032.3,025.1,7.9,0000.0,0004.01,0001.62,0000.97
2023-12-30 03:23:00,SystemResetWarning,0832.2,5.00,000.00,023.8,022.5,000.0,032.3,025.1,7.9,0000.0,0004.34,0001.62,0000.97
2023-12-30 03:24:00,SystemResetWarning,0832.2,5.00,000.00,023.8,022.5,000.0,032.2,025.1,8.0,0000.0,0004.25,0001.62,0000.97
2023-12-30 03:25:00,SystemResetWarning,0832.2,5.00,000.00,023.8,022.5,000.0,032.2,025.1,8.0,0000.0,0003.92,0001.57,0000.97
2023-12-30 03:26:00,SystemResetWarning,0832.2,5.01,000.00,023.8,022.5,000.0,032.2,025.1,8.1,0000.0,0003.86,0001.56,0000.96
2023-12-30 03:27:00,SystemResetWarning,0832.2,5.00,000.00,023.8,022.4,000.0,032.2,025.1,8.1,0000.0,0003.87,0001.56,0000.96
2023-12-30 03:28:00,SystemResetWarning,0832.2,5.00,000.00,023.8,022.4,000.0,032.2,025.1,8.1,0000.0,0003.89,0001.55,0000.96
2023-12-30 03:29:00,SystemResetWarning,0832.1,5.00,000.00,023.8,022.4,000.0,032.2,025.1,8.1,0000.0,0003.85,0001.55,0000.95
2023-12-30 03:30:00,SystemResetWarning,0832.1,5.00,000.00,023.7,022.4,000.0,032.2,025.1,8.0,0000.0,0003.73,0001.53,0000.96
2023-12-30 03:31:00,SystemResetWarning,0832.2,5.01,000.00,023.7,022.4,000.0,032.2,025.1,8.0,0000.0,0003.81,0001.52,0000.96
2023-12-30 03:32:00,SystemResetWarning,0832.2,5.00,000.00,023.7,022.4,000.0,032.1,025.0,8.0,0000.0,0003.83,0001.52,0000.94
2023-12-30 03:33:00,SystemResetWarning,0832.2,4.99,000.00,023.7,022.4,000.0,032.1,025.0,8.0,0000.0,0003.75,0001.49,0000.93
2023-12-30 03:34:00,SystemResetWarning,0832.1,4.99,000.00,023.7,022.3,000.0,032.1,025.0,8.1,0000.0,0003.54,0001.49,0000.93
2023-12-30 03:35:00,SystemResetWarning,0832.2,5.00,000.00,023.7,022.3,000.0,032.1,025.0,8.3,0000.0,0003.05,0001.45,0000.93
2023-12-30 03:36:00,SystemResetWarning,0832.2,5.01,000.00,023.7,022.3,000.0,032.1,025.0,8.4,0000.0,0002.78,0001.41,0000.93
2023-12-30 03:37:00,SystemResetWarning,0832.2,5.01,000.00,023.6,022.3,000.0,032.1,025.0,8.4,0000.0,0003.06,0001.40,0000.92
2023-12-30 03:38:00,SystemResetWarning,0832.2,5.00,000.00,023.6,022.3,000.0,032.1,024.9,8.3,0000.0,0003.09,0001.42,0000.92
2023-12-30 03:39:00,SystemResetWarning,0832.1,5.00,000.00,023.6,022.3,000.0,032.1,025.0,8.2,0000.0,0003.23,0001.46,0000.92
2023-12-30 03:40:00,SystemResetWarning,0832.1,4.99,000.00,023.6,022.3,000.0,032.1,024.9,8.2,0000.0,0003.46,0001.47,0000.91
2023-12-30 03:41:00,SystemResetWarning,0832.1,5.00,000.00,023.6,022.3,000.0,032.0,024.9,8.2,0000.0,0003.63,0001.49,0000.91
2023-12-30 03:42:00,SystemResetWarning,0832.1,5.00,000.00,023.6,022.3,000.0,032.0,024.9,8.2,0000.0,0003.65,0001.50,0000.90
2023-12-30 03:43:00,SystemResetWarning,0832.2,5.00,000.00,023.6,022.3,000.0,032.0,024.9,8.2,0000.0,0003.38,0001.45,0000.90
2023-12-30 03:44:00,SystemResetWarning,0832.2,5.00,000.00,023.6,022.3,000.0,032.0,024.9,8.2,0000.0,0003.45,0001.48,0000.91
2023-12-30 03:45:00,SystemResetWarning,0832.2,5.01,000.00,023.6,022.3,000.0,032.0,024.9,8.2,0000.0,0003.43,0001.44,0000.92
2023-12-30 03:46:00,SystemResetWarning,0832.2,5.00,000.00,023.6,022.3,000.0,032.0,024.9,8.4,0000.0,0003.50,0001.46,0000.92
2023-12-30 03:47:00,SystemResetWarning,0832.2,5.00,000.00,023.5,022.3,000.0,032.0,024.9,8.5,0000.0,0003.85,0001.53,0000.93
2023-12-30 03:48:00,SystemResetWarning,0832.1,5.00,000.00,023.5,022.2,000.0,032.0,024.9,8.4,0000.0,0003.63,0001.57,0000.94
2023-12-30 03:49:00,SystemResetWarning,0832.2,5.00,000.00,023.5,022.2,000.0,032.0,024.9,8.3,0000.0,0003.54,0001.53,0000.94
2023-12-30 03:50:00,SystemResetWarning,0832.2,4.99,000.00,023.5,022.2,000.0,031.9,024.9,8.3,0000.0,0003.37,0001.48,0000.94
2023-12-30 03:51:00,SystemResetWarning,0832.2,5.00,000.00,023.5,022.2,000.0,031.9,024.8,8.7,0000.0,0003.03,0001.46,0000.94
2023-12-30 03:52:00,SystemResetWarning,0832.2,5.00,000.00,023.5,022.2,000.0,031.9,024.8,8.9,0000.0,0002.82,0001.42,0000.95
2023-12-30 03:53:00,SystemResetWarning,0832.1,5.00,000.00,023.5,022.2,000.0,031.9,024.8,8.6,0000.0,0003.04,0001.38,0000.94
2023-12-30 03:54:00,SystemResetWarning,0832.1,5.01,000.00,023.5,022.1,000.0,031.9,024.8,8.4,0000.0,0003.68,0001.37,0000.94
2023-12-30 03:55:00,SystemResetWarning,0832.1,5.01,000.00,023.5,022.1,000.0,031.9,024.8,8.2,0000.0,0003.92,0001.36,0000.95
2023-12-30 03:56:00,SystemResetWarning,0832.0,5.00,000.00,023.5,022.1,000.0,031.9,024.8,8.2,0000.0,0003.84,0001.36,0000.94
2023-12-30 03:57:00,SystemResetWarning,0832.0,5.00,000.00,023.5,022.1,000.0,031.9,024.8,8.1,0000.0,0004.04,0001.39,0000.95
2023-12-30 03:58:00,SystemResetWarning,0832.0,4.99,000.00,023.4,022.1,000.0,031.9,024.8,8.2,0000.0,0003.81,0001.36,0000.95
2023-12-30 03:59:00,SystemResetWarning,0831.9,5.00,000.00,023.4,022.1,000.0,031.8,024.8,8.2,0000.0,0003.81,0001.35,0000.95
